Phoenix, AZ

10:02 AM MST on February 27, 2017 (GMT -0700)
Phoenix Sky Harbor International

Weather History for KPHX - July, 2013

Change the Weather History Date:

Friday, July 5, 2013

  Actual Average Record
Temperature  
Mean Temperature 98 °F 95 °F  
Max Temperature 106 °F 107 °F 116 °F (1983)
Min Temperature 89 °F 83 °F 63 °F (1912)
Degree Days  
Heating Degree Days 0 0  
Month to date heating degree days 0 0  
Since 1 June heating degree days 0 0  
Since 1 July heating degree days 0 0  
Cooling Degree Days 33 30  
Month to date cooling degree days 170 147  
Year to date cooling degree days 2170 1807  
Since 1 June cooling degree days 1072 921  
Growing Degree Days 48 (Base 50)    
Moisture  
Dew Point 57 °F    
Average Humidity 27    
Maximum Humidity 36    
Minimum Humidity 18    
Precipitation  
Precipitation 0.00 in 0.02 in 0.18 in (1906)
Month to date precipitation T 0.09  
Year to date precipitation 2.61 3.32  
Snow  
Snow 0.00 in - - ()
Month to date snowfall 0.0  
Year to date snowfall 0.0  
Since 1 July snowfall 0.0  
Snow Depth 0.00 in    
Sea Level Pressure  
Sea Level Pressure 29.67 in    
Wind  
Wind Speed 7 mph (WSW)    
Max Wind Speed 15 mph    
Max Gust Speed 19 mph    
Visibility 10 miles    
Events      
T = Trace of Precipitation, MM = Missing Value Source: NWS Daily Summary

Daily Weather History Graph

Daily Weather History Graph

Search for Another Location

Airport or City:

Trip Planner

Search our weather history database for the weather conditions in past years. The results will help you decide how hot, cold, wet, or windy it might be!

Date:

Astronomy

Jul. 05, 2013 Rise Set
Actual Time 5:23 AM MST 7:41 PM MST
Civil Twilight 4:55 AM MST 8:09 PM MST
Nautical Twilight 4:20 AM MST 8:45 PM MST
Astronomical Twilight 3:41 AM MST 9:23 PM MST
Moon 3:23 AM MST (7/5) 5:41 PM MST (7/5)
Length of Visible Light 15h 14m
Length of Day
14h 17m
Waning Crescent, 6% of the Moon is Illuminated
Jul 5
Waning Crescent
Jul 8
New
Jul 15
First Quarter
Jul 22
Full
Jul 29
Last Quarter

Hourly Weather History & Observations

Time (MST) Temp. Heat Index Dew Point Humidity Pressure Visibility Wind Dir Wind Speed Gust Speed Precip Events Conditions
12:51 AM 95.0 °F 93.7 °F 57.0 °F 28% 29.65 in 10.0 mi WNW 11.5 mph - N/A   Partly Cloudy
1:51 AM 93.9 °F 92.2 °F 55.9 °F 28% 29.65 in 10.0 mi WNW 8.1 mph - N/A   Partly Cloudy
2:51 AM 93.0 °F 91.4 °F 55.9 °F 29% 29.65 in 10.0 mi West 9.2 mph - N/A   Partly Cloudy
3:51 AM 91.9 °F 90.3 °F 55.9 °F 30% 29.65 in 10.0 mi WNW 6.9 mph - N/A   Partly Cloudy
4:51 AM 91.9 °F 90.0 °F 55.0 °F 29% 29.68 in 10.0 mi WNW 6.9 mph - N/A   Scattered Clouds
5:51 AM 90.0 °F 88.6 °F 57.0 °F 33% 29.70 in 10.0 mi SSW 3.5 mph - N/A   Mostly Cloudy
6:51 AM 90.0 °F 88.6 °F 57.0 °F 33% 29.71 in 10.0 mi SW 4.6 mph - N/A   Mostly Cloudy
7:51 AM 91.0 °F 89.7 °F 57.0 °F 32% 29.74 in 10.0 mi Calm Calm - N/A   Mostly Cloudy
8:51 AM 93.9 °F 92.2 °F 55.9 °F 28% 29.75 in 10.0 mi Variable 3.5 mph - N/A   Mostly Cloudy
9:51 AM 95.0 °F 93.7 °F 57.0 °F 28% 29.75 in 10.0 mi ENE 9.2 mph - N/A   Mostly Cloudy
10:51 AM 96.1 °F 94.8 °F 57.0 °F 27% 29.75 in 10.0 mi ENE 9.2 mph - N/A   Mostly Cloudy
11:51 AM 96.1 °F 94.8 °F 57.0 °F 27% 29.75 in 10.0 mi East 11.5 mph - N/A   Mostly Cloudy
12:51 PM 97.0 °F 95.7 °F 57.0 °F 26% 29.72 in 10.0 mi East 6.9 mph - N/A   Mostly Cloudy
1:51 PM 100.0 °F 98.8 °F 55.9 °F 23% 29.68 in 10.0 mi North 5.8 mph - N/A   Mostly Cloudy
2:51 PM 102.9 °F 101.4 °F 55.0 °F 20% 29.64 in 10.0 mi West 4.6 mph - N/A   Mostly Cloudy
3:51 PM 106.0 °F 105.1 °F 55.0 °F 19% 29.62 in 10.0 mi SSW 9.2 mph 17.3 mph N/A   Mostly Cloudy
4:51 PM 105.1 °F 103.3 °F 54.0 °F 18% 29.60 in 10.0 mi WNW 6.9 mph - N/A   Mostly Cloudy
5:51 PM 105.1 °F 103.3 °F 54.0 °F 18% 29.58 in 10.0 mi NW 11.5 mph 18.4 mph N/A   Overcast
6:51 PM 104.0 °F 101.8 °F 53.1 °F 18% 29.59 in 10.0 mi NW 8.1 mph - N/A   Overcast
7:51 PM 100.0 °F 100.7 °F 60.1 °F 27% 29.60 in 10.0 mi SSE 8.1 mph - N/A   Overcast
8:51 PM 98.1 °F 98.6 °F 61.0 °F 29% 29.62 in 10.0 mi SSE 9.2 mph - N/A   Overcast
9:51 PM 95.0 °F 95.6 °F 62.1 °F 33% 29.67 in 10.0 mi SSE 8.1 mph - N/A   Mostly Cloudy
10:51 PM 93.9 °F 95.2 °F 63.0 °F 36% 29.68 in 10.0 mi SE 8.1 mph - N/A   Mostly Cloudy
11:51 PM 93.0 °F 94.2 °F 63.0 °F 37% 29.68 in 10.0 mi ESE 6.9 mph - N/A   Mostly Cloudy